Showing default

RISAT-2BR1, 44857

Orbit data source: Space-Track

RISAT-2BR1, 44857 is a payload satellite owned by ISRO (IN) in LEO that was launched on Wed, 11 Dec 2019 UTC via a PSLV-QL launch vehicle from the Sirharikota (SRI). Payloads include a variety of satellites, spacecraft, and rockets equipped with specific instruments for various scientific and technological missions. These include communications satellites like Starlink; space stations such as the ISS; scientific satellites like the Hubble; Earth observation satellites from companies like Planet Labs, Umbra, and HawkEye 360; GPS; miniature CubeSats for education and research; and military/defense satellites.

Loading next visibility...
RISAT-2BR1 details
Identifier
44857, 2019-089F
Orbit
LEO
Last TLE update7 hours ago
Origin
Flag of INISRO (IN / IND)
ManufacturerISRO
MissionOperational Civil Radar Imaging
Bus & MotorTECHSAR, Unknown motor
Mass628 kg wet, 628 kg dry
Launch date (UTC)
2019-12-11 (5 years ago)
Launch vehicle
PSLV-QL
Launch site
Sirharikota (SRI)
Object type
Payload
Rocket body
Debris
Shape & HBRHex Cyl + 2 Pan + 1 Dish, Unknown HBR
Radar Cross Section2.910 m², Large (>1 m²)

Expand to show TLE details & history

TLE from 7 hours ago
0 RISAT-2BR1
1 44857U 19089F   24361.57731575  .00010962  00000-0  86650-3 0  9997
2 44857  36.9616  59.3268 0013127 159.7214 200.4051 15.00081855276377
Epoch: 2024-12-26T13:51Z
Definitive object data (Epoch: 2024-12-26T13:51:20.08Z)
Latitude-0.00003°
Longitude115.93837°
Altitude574.311 km
Speed7.571 km/s
True Right ascension03h 57m 18s
True Declination0° 00' 00"
Sunlit
Object was in full shadow at TLE epoch
Visualization TLE readout
Latitude35.25996°
Longitude-176.58938°
Altitude567.31 km
Speed7.583 km/s
Apparent Right ascension08h 13m 13s
Apparent Declination0° 26' 41"
Sunlit
Object is in full shadow
Visualization observer readout
Local Sidereal Time19:57:02
Azimuth353.65° N
Elevation-50.357°
Doppler factor1
Orbital elements
Apogee altitude578.672 km
Perigee altitude560.431 km
Semi-major axis6,947.688 km
Eccentricity0.0013127
Inclination36.9616°
RAAN59.3268°
Arg. of periapsis159.7214°
True anomaly200.35273°
Mean anomaly200.4051°
Eccentric anomaly200.37891°
Mean motion3.74785 °/min
BSTAR0.0008665
Orbital period96.05 mins
Loading maneuver chart data...
Loading historical data...
Loading historical data...
Loading historical data...
Loading historical data...
Loading historical data...
Loading historical data...
Loading historical data...

RISAT-2BR1 Visibility forecast

Observer location: undefined°, undefined

Span
Click to sort rows by Start time (UTC) header in descending order
Start Az.
Max El. time (UTC)
Max El. Az.
Max El.
End time (UTC)
End Az.
6 mins2024-12-27 07:39:11.915Z206.696° SW2024-12-27 07:42:11.915Z153.422° SSE23.029°2024-12-27 07:45:11.915Z104.127° ESE
6 mins2024-12-27 09:20:11.915Z242.17° WSW2024-12-27 09:23:11.915Z158.282° S38.013°2024-12-27 09:26:11.915Z99.264° ESE
6 mins2024-12-27 11:01:11.915Z258.629° W2024-12-27 11:04:11.915Z179.403° S37.927°2024-12-27 11:07:11.915Z116.249° SE
5 mins2024-12-27 12:43:11.915Z238.663° WSW2024-12-27 12:45:11.915Z197.143° SSW22.141°2024-12-27 12:48:11.915Z150.388° SSE
|